Zurück zum Katalog

STARLINK-33825

AktivKommunikationVLEO
NORAD 63505·PAYLOAD·🇺🇸 United States

Gestartet Apr 7, 2025 von Vandenberg Space Force Base

Loading…

Nächste Überflüge (nächste 24 Stunden)

TLE

AktuellSource: CelesTrak SupGP

Epoche: Sep 14, 2026, 14:15 UTC

1 63505C 25071N   26257.59423611 -.00037294  00000+0 -11024-2 0  2570
2 63505  53.1605 341.4297 0001218  74.5357  41.9624 15.34394434    11

Verfolge STARLINK-33825 in Echtzeit mit AllMySat

Download on the App Store